Engelberg, Switzerland 16 day weather forecast

Slopes altitude range 1050 m - 3030m

Number of lifts: 25 Pistes: 82km

In some cases the lift and piste totals shown are for the ski domain (e.g. Three Valleys) rather than individual resort (e.g. Courchevel)

Overview

The 16 day weather forecast is fully updated 4 times every day.

    • Thu 21 FEB 2019
    • Thu 21
    • 3C 10C
    • Fri 22 FEB 2019
    • Fri 22
    • 1C 9C
    • Sat 23 FEB 2019
    • Sat 23
    • 1C 8C
    • Sun 24 FEB 2019
    • Sun 24
    • 0C 8C
    • Mon 25 FEB 2019
    • Mon 25
    • 1C 11C
    • Tue 26 FEB 2019
    • Tue 26
    • 3C 11C
    • Wed 27 FEB 2019
    • Wed 27
    • 4C 13C
    • Thu 28 FEB 2019
    • Thu 28
    • 6C 14C
    • Fri 01 MAR 2019
    • Fri 01
    • -1C 6C
    • Sat 02 MAR 2019
    • Sat 02
    • -1C 7C
    • Sun 03 MAR 2019
    • Sun 03
    • -2C 2C
    • Mon 04 MAR 2019
    • Mon 04
    • -1C 10C
    • Tue 05 MAR 2019
    • Tue 05
    • -1C 5C
    • Wed 06 MAR 2019
    • Wed 06
    • -3C 1C
    • Thu 07 MAR 2019
    • Thu 07
    • -7C -3C
    • Fri 08 MAR 2019
    • Fri 08
    • -10C -6C

Date:

Time Type 0°C level Temp Chill Snow Cloud Speed Gust Dir Press
18:00 2116m 10°C 10_5 0cm 4% 5mph 6mph 1030mB
21:00 1889m 2°C 2_6 0cm 0% 6mph 7mph 1032mB
0:00 1846m 2°C 2_5 0cm 1% 5mph 6mph 1033mB
3:00 1695m 1°C 1_5 0cm 2% 5mph 6mph 1033mB
6:00 1717m 1°C 1_5 0cm 2% 5mph 6mph 1033mB
9:00 2028m 1°C 1_2 0cm 0% 2mph 3mph 1031mB
12:00 2000m 9°C 9_4 0cm 1% 4mph 5mph 1030mB
15:00 1756m 8°C 8_4 0cm 9% 4mph 6mph 1030mB
18:00 1662m 8°C 8_2 0cm 23% 2mph 3mph 1033mB
21:00 2524m 2°C 2_5 0cm 4% 5mph 5mph 1034mB
0:00 2710m 1°C 1_5 0cm 2% 5mph 6mph 1033mB
3:00 3039m 1°C 1_4 0cm 0% 4mph 5mph 1033mB
6:00 2742m 1°C 1_3 0cm 0% 3mph 4mph 1033mB
9:00 3040m 1°C 1_2 0cm 0% 2mph 3mph 1033mB
12:00 3079m 8°C 8_4 0cm 0% 4mph 5mph 1031mB
15:00 3206m 9°C 9_2 0cm 13% 2mph 3mph 1030mB
18:00 3327m 9°C 9_3 0cm 10% 3mph 3mph 1033mB
21:00 3435m 1°C 1_1 0cm 0% 1mph 2mph 1034mB
0:00 3353m 0°C 0_1 0cm 0% 1mph 2mph 1034mB
3:00 2058m 0°C 0_2 0cm 0% 2mph 2mph 1034mB
6:00 2018m 0°C 0_2 0cm 0% 2mph 2mph 1034mB
9:00 3124m 0°C 0_2 0cm 12% 2mph 2mph 1034mB
12:00 3216m 8°C 8_3 0cm 16% 3mph 4mph 1033mB
15:00 3243m 9°C 9_3 0cm 9% 3mph 4mph 1032mB
18:00 3185m 9°C 9_4 0cm 4% 4mph 5mph 1034mB
21:00 3105m 3°C 3_3 0cm 0% 3mph 4mph 1035mB
0:00 3089m 2°C 2_4 0cm 0% 4mph 5mph 1035mB
3:00 3112m 1°C 1_2 0cm 2% 2mph 3mph 1035mB
6:00 3064m 1°C 1_3 0cm 29% 3mph 4mph 1035mB
9:00 3067m 1°C 1_2 0cm 65% 2mph 3mph 1035mB
12:00 2997m 11°C 11_3 0cm 37% 3mph 5mph 1033mB
15:00 2959m 12°C 12_2 0cm 0% 2mph 4mph 1032mB
18:00 2954m 12°C 12_5 0cm 0% 5mph 6mph 1035mB
21:00 2870m 4°C 4_4 0cm 0% 4mph 5mph 1036mB
0:00 3037m 4°C 4_4 0cm 2% 4mph 4mph 1036mB
3:00 3261m 3°C 3_3 0cm 0% 3mph 4mph 1035mB
6:00 3208m 3°C 3_3 0cm 0% 3mph 4mph 1034mB
9:00 3233m 3°C 3_1 0cm 1% 1mph 1mph 1033mB
12:00 3260m 11°C 11_3 0cm 15% 3mph 3mph 1031mB
15:00 3344m 11°C 11_3 0cm 47% 3mph 4mph 1029mB
18:00 3422m 11°C 11_3 0cm 37% 3mph 3mph 1031mB
21:00 3454m 5°C 5_4 0cm 3% 4mph 5mph 1031mB
0:00 3460m 4°C 4_3 0cm 2% 3mph 4mph 1030mB
3:00 3441m 4°C 4_3 0cm 0% 3mph 4mph 1028mB
6:00 3435m 4°C 4_3 0cm 0% 3mph 4mph 1028mB
9:00 3528m 4°C 4_1 0cm 0% 1mph 2mph 1026mB
12:00 3541m 13°C 13_3 0cm 3% 3mph 2mph 1024mB
15:00 3469m 14°C 14_3 0cm 6% 3mph 3mph 1023mB
18:00 3422m 14°C 14_4 0cm 3% 4mph 5mph 1024mB
21:00 3358m 7°C 7_5 0cm 0% 5mph 6mph 1024mB
0:00 3245m 7°C 7_5 0cm 0% 5mph 6mph 1024mB
3:00 3053m 6°C 6_5 0cm 0% 5mph 6mph 1024mB
6:00 2955m 6°C 6_5 0cm 2% 5mph 6mph 1024mB
9:00 2901m 6°C 6_2 0cm 42% 2mph 3mph 1024mB
12:00 2841m 14°C 14_3 0cm 24% 3mph 5mph 1023mB
15:00 2725m 14°C 14_3 0cm 31% 3mph 5mph 1022mB
18:00 2631m 14°C 14_2 0cm 17% 2mph 2mph 1024mB
21:00 2403m 5°C 5_3 0cm 4% 3mph 4mph 1025mB
0:00 2353m 4°C 4_4 0cm 7% 4mph 5mph 1026mB
3:00 1973m -1°C -1_5 0cm 27% 5mph 6mph 1025mB
6:00 1862m -1°C -1_4 0cm 15% 4mph 5mph 1025mB
9:00 2193m -1°C -1_2 0cm 39% 2mph 3mph 1024mB
12:00 2286m 6°C 6_3 0cm 64% 3mph 3mph 1023mB
15:00 2237m 7°C 7_4 0cm 90% 4mph 4mph 1021mB
18:00 2000m 7°C 7_2 0cm 90% 2mph 3mph 1023mB
21:00 1888m 0°C 0_4 0cm 71% 4mph 5mph 1024mB
0:00 1956m -1°C -1_5 0cm 75% 5mph 6mph 1023mB
3:00 1974m -1°C -1_5 0cm 87% 5mph 6mph 1023mB
6:00 1440m -1°C -1_5 0cm 90% 5mph 6mph 1022mB
9:00 2257m -1°C -1_4 0cm 93% 4mph 6mph 1021mB
12:00 2283m 7°C 7_4 0cm 93% 4mph 6mph 1018mB
15:00 2304m 7°C 7_4 0cm 34% 4mph 7mph 1016mB
18:00 2096m 7°C 7_5 0cm 33% 5mph 7mph 1017mB
21:00 2068m 1°C 1_6 0cm 98% 6mph 7mph 1017mB
0:00 1960m 1°C 1_8 0cm 99% 8mph 13mph 1017mB
3:00 1492m 0°C 0_7 6cm 100% 7mph 12mph 1018mB
6:00 1220m -2°C -2_7 5cm 100% 7mph 12mph 1020mB
9:00 1368m -2°C -2_6 1cm 100% 6mph 10mph 1022mB
12:00 1609m 2°C 2_7 1cm 97% 7mph 11mph 1022mB
Morning 0.0208333mm 0 1244m -2°C -2_9 0cm 59% 9mph 9mph 1023mB
Afternoon 0mm 0 2754m 10°C 10_12 0cm 57% 12mph 17mph 1013mB
Morning 0.75mm 1.625 1911m 2°C 2_6 0cm 98% 6mph 9mph 1013mB
Afternoon 0.140625mm 0 1873m 5°C 5_9 1cm 94% 9mph 12mph 1009mB
Morning 0.255208mm 1.0625 1821m 1°C 1_8 8cm 95% 8mph 11mph 1006mB
Afternoon 0.71875mm 3.875 1494m 1°C 1_11 31cm 76% 11mph 17mph 1010mB
Morning 0.239583mm 0.125 886m -4°C -4_10 2cm 87% 10mph 13mph 1016mB
Afternoon 0.114583mm 0.125 868m -3°C -3_13 1cm 90% 13mph 15mph 1022mB
Morning 0.177083mm 0.4375 32m -9°C -9_6 4cm 98% 6mph 9mph 1032mB
Afternoon 0.166667mm 0.0625 463m -6°C -6_8 1cm 95% 8mph 9mph 1034mB
Morning 0.0260417mm 0.0625 0m -12°C -12_10 1cm 62% 10mph 10mph 1038mB
Afternoon 0mm 0 1752m 3°C 3_5 0cm 32% 5mph 7mph 1029mB

16 day outlook at a glance

Forecast issued: 21/02/2019 18:50:33

Chat

Your comments and questions. In a resort? Let us know what it's like!


Characters left 250

For terms and conditions see Readers Comments on the Cookie and privacy policy page.